Colby, KS

3:26 PM CDT on September 23, 2017 (GMT -0500)
Shaltz

Weather History for KCBK - June, 2014

Change the Weather History Date:

Thursday, June 5, 2014

  Actual Average (KGLD) Record (KGLD)
Temperature  
Mean Temperature 71 °F -  
Max Temperature 80 °F 79 °F 98 °F (1956)
Min Temperature 62 °F 52 °F 36 °F (1998)
Cooling Degree Days 6    
Growing Degree Days 21 (Base 50)    
Moisture  
Dew Point 63 °F    
Average Humidity 81    
Maximum Humidity 100    
Minimum Humidity 44    
Precipitation  
Precipitation 0.00 in - - ()
Sea Level Pressure  
Sea Level Pressure 29.94 in    
Wind  
Wind Speed 10 mph (NNE)    
Max Wind Speed 29 mph    
Max Gust Speed 48 mph    
Visibility 9 miles    
Events Rain    
Averages and records for this station are not official NWS values.
T = Trace of Precipitation, MM = Missing Value Source: NWS Daily Summary

Daily Weather History Graph

Daily Weather History Graph

Search for Another Location

Airport or City:

Trip Planner

Search our weather history database for the weather conditions in past years. The results will help you decide how hot, cold, wet, or windy it might be!

Date:

Astronomy

Jun. 05, 2014 Rise Set
Actual Time 6:17 AM CDT 9:07 PM CDT
Civil Twilight 5:45 AM CDT 9:40 PM CDT
Nautical Twilight 5:05 AM CDT 10:20 PM CDT
Astronomical Twilight 4:19 AM CDT 11:06 PM CDT
Moon 1:34 PM CDT (6/5) 1:38 AM CDT (6/5)
Length of Visible Light 15h 54m
Length of Day
14h 50m
Waxing Crescent, 49% of the Moon is Illuminated
Jun 5
Waxing Crescent
Jun 5
First Quarter
Jun 12
Full
Jun 19
Last Quarter
Jun 27
New

Hourly Weather History & Observations

Time (CDT) Temp. Heat Index Dew Point Humidity Pressure Visibility Wind Dir Wind Speed Gust Speed Precip Events Conditions
12:10 AM 64.4 °F - 62.6 °F 94% 29.94 in 10.0 mi NW 10.4 mph - N/A   Mostly Cloudy
12:30 AM 66.2 °F - 62.6 °F 88% 29.93 in 10.0 mi NNW 6.9 mph - N/A   Overcast
12:50 AM 64.4 °F - 64.4 °F 100% 29.90 in 10.0 mi East 8.1 mph - N/A   Mostly Cloudy
1:10 AM 64.4 °F - 64.4 °F 100% 29.92 in 10.0 mi Calm Calm - N/A   Clear
1:30 AM 64.4 °F - 64.4 °F 100% 29.90 in 10.0 mi NE 8.1 mph - N/A   Scattered Clouds
1:50 AM 64.4 °F - 62.6 °F 94% 29.89 in 10.0 mi ENE 12.7 mph - N/A   Scattered Clouds
2:10 AM 64.4 °F - 64.4 °F 100% 29.84 in 10.0 mi NNE 24.2 mph - N/A Rain Light Rain
2:30 AM 64.4 °F - 62.6 °F 94% 29.83 in 10.0 mi NNE 27.6 mph 33.4 mph N/A Rain Light Rain
2:50 AM 64.4 °F - 64.4 °F 100% 29.93 in 4.0 mi NNW 9.2 mph - N/A Rain Heavy Rain
3:10 AM 64.4 °F - 64.4 °F 100% 29.96 in 7.0 mi West 9.2 mph 15.0 mph N/A Rain Rain
3:30 AM 64.4 °F - 64.4 °F 100% 29.81 in 5.0 mi ENE 26.5 mph 34.5 mph N/A Rain Rain
3:50 AM 64.4 °F - 62.6 °F 94% 29.79 in 10.0 mi East 26.5 mph 48.3 mph N/A   Scattered Clouds
4:10 AM 64.4 °F - 62.6 °F 94% 29.79 in 10.0 mi East 28.8 mph 35.7 mph N/A   Clear
4:30 AM 64.4 °F - 62.6 °F 94% 29.85 in 10.0 mi NE 10.4 mph 28.8 mph N/A   Clear
4:50 AM 64.4 °F - 62.6 °F 94% 29.87 in 10.0 mi North 15.0 mph 21.9 mph N/A   Scattered Clouds
5:10 AM 62.6 °F - 62.6 °F 100% 29.88 in 10.0 mi NNE 21.9 mph 28.8 mph N/A   Scattered Clouds
5:30 AM 62.6 °F - 62.6 °F 100% 29.89 in 7.0 mi NNE 23.0 mph 32.2 mph N/A   Scattered Clouds
5:50 AM 62.6 °F - 62.6 °F 100% 29.89 in 7.0 mi NNE 16.1 mph 21.9 mph N/A   Scattered Clouds
6:10 AM 62.6 °F - 62.6 °F 100% 29.90 in 7.0 mi NE 11.5 mph - N/A   Clear
6:30 AM 62.6 °F - 62.6 °F 100% 29.90 in 3.0 mi NE 13.8 mph - N/A   Mostly Cloudy
6:50 AM 62.6 °F - 62.6 °F 100% 29.90 in 2.5 mi NE 11.5 mph - N/A   Overcast
7:10 AM 62.6 °F - 62.6 °F 100% 29.90 in 2.5 mi NE 8.1 mph - N/A   Overcast
7:30 AM 62.6 °F - 62.6 °F 100% 29.91 in 3.0 mi NE 10.4 mph - N/A   Overcast
7:50 AM 62.6 °F - 62.6 °F 100% 29.91 in 4.0 mi ENE 9.2 mph - N/A   Overcast
8:30 AM 62.6 °F - 62.6 °F 100% 29.91 in 5.0 mi ENE 5.8 mph - N/A   Overcast
8:50 AM 64.4 °F - 64.4 °F 100% 29.93 in 7.0 mi NNE 5.8 mph - N/A   Overcast
9:10 AM 64.4 °F - 64.4 °F 100% 29.95 in 7.0 mi North 8.1 mph - N/A   Overcast
9:30 AM 64.4 °F - 64.4 °F 100% 29.96 in 10.0 mi North 8.1 mph - N/A   Overcast
9:50 AM 66.2 °F - 64.4 °F 94% 29.97 in 10.0 mi NNW 11.5 mph - N/A   Overcast
10:10 AM 68.0 °F - 64.4 °F 88% 29.97 in 10.0 mi NNW 11.5 mph - N/A   Overcast
10:30 AM 68.0 °F - 64.4 °F 88% 29.97 in 10.0 mi NNW 12.7 mph - N/A   Overcast
10:50 AM 69.8 °F - 64.4 °F 83% 29.98 in 10.0 mi NNW 13.8 mph - N/A   Overcast
11:10 AM 68.0 °F - 64.4 °F 88% 29.98 in 10.0 mi NW 13.8 mph - N/A   Overcast
11:30 AM 69.8 °F - 64.4 °F 83% 29.99 in 10.0 mi NNW 13.8 mph - N/A   Overcast
11:50 AM 69.8 °F - 62.6 °F 78% 29.99 in 10.0 mi NW 17.3 mph - N/A   Overcast
12:10 PM 69.8 °F - 62.6 °F 78% 29.99 in 10.0 mi North 15.0 mph - N/A   Mostly Cloudy
12:30 PM 71.6 °F - 64.4 °F 78% 29.99 in 10.0 mi NNW 17.3 mph 20.7 mph N/A   Mostly Cloudy
12:50 PM 71.6 °F - 64.4 °F 78% 29.99 in 10.0 mi North 12.7 mph 18.4 mph N/A   Mostly Cloudy
1:10 PM 71.6 °F - 62.6 °F 73% 30.00 in 10.0 mi North 9.2 mph 20.7 mph N/A   Overcast
1:30 PM 71.6 °F - 62.6 °F 73% 30.00 in 10.0 mi North 10.4 mph - N/A   Mostly Cloudy
1:50 PM 71.6 °F - 62.6 °F 73% 30.00 in 10.0 mi NNE 9.2 mph - N/A   Overcast
2:10 PM 71.6 °F - 62.6 °F 73% 30.00 in 10.0 mi ENE 8.1 mph - N/A   Overcast
2:30 PM 73.4 °F - 62.6 °F 69% 29.99 in 10.0 mi NE 8.1 mph - N/A   Mostly Cloudy
2:50 PM 73.4 °F - 60.8 °F 65% 29.99 in 10.0 mi Calm Calm - N/A   Scattered Clouds
3:10 PM 75.2 °F - 60.8 °F 61% 29.98 in 10.0 mi North 4.6 mph - N/A   Scattered Clouds
3:30 PM 75.2 °F - 60.8 °F 61% 29.98 in 10.0 mi Calm Calm - N/A   Clear
3:50 PM 77.0 °F - 60.8 °F 57% 29.97 in 10.0 mi ENE 4.6 mph - N/A   Clear
4:10 PM 77.0 °F - 59.0 °F 54% 29.97 in 10.0 mi NNE 3.5 mph - N/A   Clear
4:30 PM 77.0 °F - 60.8 °F 57% 29.96 in 10.0 mi East 4.6 mph - N/A   Clear
4:50 PM 78.8 °F - 59.0 °F 51% 29.95 in 10.0 mi Calm Calm - N/A   Clear
5:10 PM 78.8 °F - 59.0 °F 51% 29.95 in 10.0 mi East 4.6 mph - N/A   Clear
5:30 PM 80.6 °F 81.1 °F 59.0 °F 48% 29.95 in 10.0 mi NE 3.5 mph - N/A   Clear
5:50 PM 80.6 °F 81.1 °F 59.0 °F 48% 29.95 in 10.0 mi North 4.6 mph - N/A   Clear
6:10 PM 78.8 °F - 57.2 °F 47% 29.95 in 10.0 mi NNW 5.8 mph - N/A   Clear
6:30 PM 78.8 °F - 55.4 °F 44% 29.94 in 10.0 mi NE 4.6 mph - N/A   Clear
7:10 PM 77.0 °F - 59.0 °F 54% 29.95 in 10.0 mi NNW 3.5 mph - N/A   Clear
7:30 PM 77.0 °F - 59.0 °F 54% 29.95 in 10.0 mi North 3.5 mph - N/A   Clear
7:50 PM 77.0 °F - 60.8 °F 57% 29.96 in 10.0 mi Calm Calm - N/A   Clear
8:10 PM 75.2 °F - 62.6 °F 65% 29.97 in 10.0 mi NW 3.5 mph - N/A   Clear
8:50 PM 71.6 °F - 62.6 °F 73% 29.97 in 10.0 mi Calm Calm - N/A   Clear
9:10 PM 71.6 °F - 66.2 °F 83% 29.98 in 10.0 mi SW 3.5 mph - N/A   Clear
9:30 PM 71.6 °F - 64.4 °F 78% 29.98 in 10.0 mi Calm Calm - N/A   Clear
9:50 PM 69.8 °F - 64.4 °F 83% 29.99 in 10.0 mi Calm Calm - N/A   Clear
10:10 PM 69.8 °F - 64.4 °F 83% 29.99 in 10.0 mi SW 3.5 mph - N/A   Clear
10:30 PM 69.8 °F - 64.4 °F 83% 29.99 in 10.0 mi Calm Calm - N/A   Clear
10:50 PM 69.8 °F - 64.4 °F 83% 29.97 in 10.0 mi South 6.9 mph - N/A   Clear
11:10 PM 68.0 °F - 62.6 °F 83% 29.98 in 10.0 mi South 6.9 mph - N/A   Clear
11:30 PM 69.8 °F - 62.6 °F 78% 30.00 in 10.0 mi South 4.6 mph - N/A   Clear
11:50 PM 69.8 °F - 62.6 °F 78% 30.01 in 10.0 mi Calm Calm - N/A   Clear